Participated 5 times
Between 1991 and 1996
Vladimir Pulnikov, Ukraine
Tour de France 2026 starts from Barcelona, Spain in

Stats and Facts from
Tour de France.

2026   2025   2024   2023  2022  2021  2020  2019   2018  2017   2016   2015  2014  2013   2012   2011  2010   2009   2008   2007   2006   2005   2004   2003   2002   2001   2000   1999   1998   1997  1996   1995   1994   1993   1992  1991   1990   1989   1988   1987   1986   1985   1984   1983  1982  1981   1980   1979  1978  1977   1976  1975  1974  1973   1972   1971   1970  1969   1968   1967   1966   1965  1964  1963   1962   1961   1960   1959   1958   1957  1956   1955   1954   1953   1952  1951  1950  1949   1948  1947  1939   1938   1937   1936   1935   1934   1933  1932   1931   1930  1929   1928   1927   1926  1925  1924  1923   1922   1921   1920   1919  1914   1913   1912   1911   1910  1909   1908   1907   1906  1905  1904   1903 

Tourstats
Sitemap

After stage 21 - 2025:
 16451 starters.
  5464 different riders.
  689 teams.
  2398 stages.
  470 restdays.
  466506.50 km.
  5925 abandoned riders.

Click map for 2012 route.
Facts from Tour de France 2012
  |   Stages.  |   Stage winners.  |   Days in jerseys.  |   Teams.  |   All riders.  |   All riders by age.  |   All riders from.  |  

  |   Rookies.  |   Withdrawls.  |   Average speed.  |   GC.  |   Polka  |   Green  |   White  |   Summits. (In tour)  |   Miscellaneous.  |  

Stage 17 on July 19th. 2012
Pick a stage:  Pro  1  2  3  4  5  6  7  8  9  10  11  12  13  14  15  16  17  18  19  20  

After stage 17:    Bradley Wiggins    Thomas  Voeckler    Peter Sagan    Tejay Van Garderen  
  Bagnères-de-LuchonPeyragudes | Dist: 143.50km. | Winner: Alejandro Valverde

Podium
1  Col de Menté/Mourtis Thomas  Voecklerafter27.50 km.

2  Col des Ares Thomas  Voecklerafter55.50 km.

3  Côte de Burs Thomas  Voecklerafter76.00 km.

HC  Port de Balès Alejandro Valverdeafter111.50 km.

1  Peyragudes Alejandro Valverdeafter142.50 km.


Average speed for all riders in stage:  31,652 km./hr.

1
 Alejandro Valverde  Movistar04h 12' 11"=34,142  km/h

2
 Chris Froome  Sky Procycling04h 12' 30"+  00:00:19 =34,099  km/h

3
 Bradley Wiggins  Sky Procycling04h 12' 30"+  00:00:19 =34,099  km/h

4  Thibaut Pinot  FDJ – Big Mat04h 12' 33"+  00:00:22 =34,092  km/h

5  Pierre Rolland  Europcar04h 12' 37"+  00:00:26 =34,083  km/h

6  Jurgen Van Den Broeck  Lotto-Belisol04h 12' 37"+  00:00:26 =34,083  km/h

7  Vincenzo Nibali  Liquigas-Cannondale04h 12' 48"+  00:00:37 =34,059  km/h

8  Tejay Van Garderen  BMC04h 13' 05"+  00:00:54 =34,020  km/h

9  Christopher Horner  Radioshack–Nissan04h 13' 13"+  00:01:02 =34,003  km/h

10  Dan Martin  Garmin-Sharp-Barracuda04h 13' 22"+  00:01:11 =33,982  km/h

11  Andréas  Klöden  Radioshack–Nissan04h 13' 25"+  00:01:14 =33,976  km/h

12  Nicolas Roche  AG2R La Mondiale04h 13' 41"+  00:01:30 =33,940  km/h

13  Jelle Vanendert  Lotto-Belisol04h 13' 50"+  00:01:39 =33,920  km/h

14  Richie Porte  Sky Procycling04h 13' 57"+  00:01:46 =33,904  km/h

15  Denis Menchov  Katusha04h 14' 06"+  00:01:55 =33,884  km/h

16  Christophe Kern  Europcar04h 14' 21"+  00:02:10 =33,851  km/h

17  Janez Brajkovič  Astana Pro Team04h 14' 21"+  00:02:10 =33,851  km/h

18  Cadel Evans  BMC04h 14' 21"+  00:02:10 =33,851  km/h

19  Michael Rogers  Sky Procycling04h 14' 21"+  00:02:10 =33,851  km/h

20  Ivan Basso  Liquigas-Cannondale04h 14' 48"+  00:02:37 =33,791  km/h

21  Maxime Monfort  Radioshack–Nissan04h 15' 28"+  00:03:17 =33,703  km/h

22  Haimar  Zubeldía  Radioshack–Nissan04h 15' 28"+  00:03:17 =33,703  km/h

23  Yury  Trofimov  Katusha04h 15' 28"+  00:03:17 =33,703  km/h

24  Chris Anker Sørensen  Saxo Bank-Tinkoff Bank04h 16' 51"+  00:04:40 =33,522  km/h

25  Egoi Martínez  Euskaltel-Euskadi04h 16' 51"+  00:04:40 =33,522  km/h

26  Michele Scarponi  Lampre-ISD04h 18' 39"+  00:06:28 =33,288  km/h

27  Christophe Riblon  AG2R La Mondiale04h 18' 57"+  00:06:46 =33,250  km/h

28  Juan José Cobo  Movistar04h 18' 57"+  00:06:46 =33,250  km/h

29  Maxim Iglinskiy  Astana Pro Team04h 19' 06"+  00:06:55 =33,230  km/h

30  Fredrik Kessiakoff  Astana Pro Team04h 19' 06"+  00:06:55 =33,230  km/h

31  Sandy Casar  FDJ – Big Mat04h 19' 06"+  00:06:55 =33,230  km/h

32  Rui Costa  Movistar04h 19' 06"+  00:06:55 =33,230  km/h

33  Blel Kadri  AG2R La Mondiale04h 19' 44"+  00:07:33 =33,149  km/h

34  Levi Leipheimer  Omega Pharma – Quick Step04h 20' 30"+  00:08:19 =33,052  km/h

35  Eduard Vorganov  Katusha04h 21' 17"+  00:09:06 =32,953  km/h

36  Michael Schär  BMC04h 21' 48"+  00:09:37 =32,888  km/h

37  Pieter Weening  Orica-GreenEDGE04h 22' 13"+  00:10:02 =32,835  km/h

38  Laurens Ten Dam  Rabobank04h 22' 53"+  00:10:42 =32,752  km/h

39  Gorka Izagirre  Euskaltel-Euskadi04h 22' 53"+  00:10:42 =32,752  km/h

40  Edvald Boasson Hagen  Sky Procycling04h 23' 23"+  00:11:12 =32,690  km/h

41  Dominik Nerz  Liquigas-Cannondale04h 23' 23"+  00:11:12 =32,690  km/h

42  Rein Taaramäe  Cofidis Le Credit En Ligne04h 23' 32"+  00:11:21 =32,671  km/h

43  Jean-Christophe Peraud  AG2R La Mondiale04h 26' 10"+  00:13:59 =32,348  km/h

44  Alexandre Vinokourov  Astana Pro Team04h 27' 13"+  00:15:02 =32,221  km/h

45  Andriy Grivko  Astana Pro Team04h 27' 13"+  00:15:02 =32,221  km/h

46  Simone Stortoni  Lampre-ISD04h 27' 13"+  00:15:02 =32,221  km/h

47  Sérgio Paulinho  Saxo Bank-Tinkoff Bank04h 27' 13"+  00:15:02 =32,221  km/h

48  Thomas  Voeckler  Europcar04h 28' 12"+  00:16:01 =32,103  km/h

49  Francis De Greef  Lotto-Belisol04h 28' 17"+  00:16:06 =32,093  km/h

50  Marcus Burghardt  BMC04h 28' 17"+  00:16:06 =32,093  km/h

51  Jorge Azanza  Euskaltel-Euskadi04h 28' 17"+  00:16:06 =32,093  km/h

52  Ruben Perez  Euskaltel-Euskadi04h 28' 17"+  00:16:06 =32,093  km/h

53  Johnny Hoogerland  Vacansoleil-DCM04h 28' 17"+  00:16:06 =32,093  km/h

54  Maxime Bouet  AG2R La Mondiale04h 28' 17"+  00:16:06 =32,093  km/h

55  George Hincapie  BMC04h 28' 17"+  00:16:06 =32,093  km/h

56  Philippe Gilbert  BMC04h 28' 17"+  00:16:06 =32,093  km/h

57  Adam Hansen  Lotto-Belisol04h 28' 17"+  00:16:06 =32,093  km/h

58  Sébastien Minard  AG2R La Mondiale04h 28' 17"+  00:16:06 =32,093  km/h

59  Jérémy Roy  FDJ – Big Mat04h 28' 17"+  00:16:06 =32,093  km/h

60  Matthieu Ladagnous  FDJ – Big Mat04h 28' 17"+  00:16:06 =32,093  km/h

61  Steven Kruijswijk  Rabobank04h 28' 17"+  00:16:06 =32,093  km/h

62  Dimitiri Fofonov  Astana Pro Team04h 28' 17"+  00:16:06 =32,093  km/h

63  Guillaume Levarlet  Saur-Sojasun04h 28' 17"+  00:16:06 =32,093  km/h

64  Peter Velits  Omega Pharma – Quick Step04h 28' 17"+  00:16:06 =32,093  km/h

65  Fabrice Jeandesboz  Saur-Sojasun04h 28' 17"+  00:16:06 =32,093  km/h

66  Pierrick  Fédrigo  FDJ – Big Mat04h 28' 17"+  00:16:06 =32,093  km/h

67  Cyril Gautier  Europcar04h 28' 17"+  00:16:06 =32,093  km/h

68  Romain Zingle  Cofidis Le Credit En Ligne04h 28' 17"+  00:16:06 =32,093  km/h

69  Julien Simon  Saur-Sojasun04h 28' 17"+  00:16:06 =32,093  km/h

70  Mikaël Cherel  AG2R La Mondiale04h 28' 17"+  00:16:06 =32,093  km/h

71  Jérôme Coppel  Saur-Sojasun04h 28' 17"+  00:16:06 =32,093  km/h

72  Rubén Plaza  Movistar04h 28' 17"+  00:16:06 =32,093  km/h

73  Vladimir Karpets  Movistar04h 28' 17"+  00:16:06 =32,093  km/h

74  Rafael Valls Ferri  Vacansoleil-DCM04h 28' 17"+  00:16:06 =32,093  km/h

75  Christian Knees  Sky Procycling04h 28' 17"+  00:16:06 =32,093  km/h

76  Amaël Moinard  BMC04h 28' 17"+  00:16:06 =32,093  km/h

77  Brice Feillu  Saur-Sojasun04h 28' 17"+  00:16:06 =32,093  km/h

78  Yukiya  Arashiro  Europcar04h 28' 17"+  00:16:06 =32,093  km/h

79  Yaroslav Popovych  Radioshack–Nissan04h 34' 27"+  00:22:16 =31,372  km/h

80  Giampaolo Caruso  Katusha04h 34' 27"+  00:22:16 =31,372  km/h

81  Davide Malacarne  Europcar04h 34' 27"+  00:22:16 =31,372  km/h

82  Kristjan Koren  Liquigas-Cannondale04h 34' 47"+  00:22:36 =31,334  km/h

83  Daniel Oss  Liquigas-Cannondale04h 35' 31"+  00:23:20 =31,250  km/h

84  Joan Horrach  Katusha04h 40' 27"+  00:28:16 =30,701  km/h

85  Luis Angel Mate  Cofidis Le Credit En Ligne04h 40' 27"+  00:28:16 =30,701  km/h

86  Luis León Sánchez  Rabobank04h 40' 27"+  00:28:16 =30,701  km/h

87  Borut Božič  Astana Pro Team04h 40' 27"+  00:28:16 =30,701  km/h

88  Sylwester Szmyd  Liquigas-Cannondale04h 43' 08"+  00:30:57 =30,410  km/h

89  Peter Sagan  Liquigas-Cannondale04h 43' 08"+  00:30:57 =30,410  km/h

90  Gregory Henderson  Lotto-Belisol04h 43' 08"+  00:30:57 =30,410  km/h

91  Marcel Sieberg  Lotto-Belisol04h 43' 08"+  00:30:57 =30,410  km/h

92  Aliaksandr Kuchynski  Katusha04h 43' 08"+  00:30:57 =30,410  km/h

93  Sébastien Hinault  AG2R La Mondiale04h 43' 08"+  00:30:57 =30,410  km/h

94  Nick Nuyens  Saxo Bank-Tinkoff Bank04h 43' 08"+  00:30:57 =30,410  km/h

95  Jürgen Roelandts  Lotto-Belisol04h 43' 08"+  00:30:57 =30,410  km/h

96  Roy Curvers  Argos–Shimano04h 43' 08"+  00:30:57 =30,410  km/h

97  André Greipel  Lotto-Belisol04h 43' 08"+  00:30:57 =30,410  km/h

98  Federico Canuti  Liquigas-Cannondale04h 43' 08"+  00:30:57 =30,410  km/h

99  Koen De Kort  Argos–Shimano04h 43' 08"+  00:30:57 =30,410  km/h

100  Bert Grabsch  Omega Pharma – Quick Step04h 43' 08"+  00:30:57 =30,410  km/h

101  Martin Velits  Omega Pharma – Quick Step04h 43' 08"+  00:30:57 =30,410  km/h

102  Cédric Pineau  FDJ – Big Mat04h 43' 08"+  00:30:57 =30,410  km/h

103  Kris Boeckmans  Vacansoleil-DCM04h 43' 08"+  00:30:57 =30,410  km/h

104  Juan José Haedo  Saxo Bank-Tinkoff Bank04h 43' 08"+  00:30:57 =30,410  km/h

105  Danilo Hondo  Lampre-ISD04h 43' 08"+  00:30:57 =30,410  km/h

106  Yann Huguet  Argos–Shimano04h 43' 08"+  00:30:57 =30,410  km/h

107  Arthur Vichot  FDJ – Big Mat04h 43' 08"+  00:30:57 =30,410  km/h

108  Simon Gerrans  Orica-GreenEDGE04h 43' 08"+  00:30:57 =30,410  km/h

109  Julien Fouchard  Cofidis Le Credit En Ligne04h 43' 08"+  00:30:57 =30,410  km/h

110  Nicki Sørensen  Saxo Bank-Tinkoff Bank04h 43' 08"+  00:30:57 =30,410  km/h

111  Samuel Dumoulin  Cofidis Le Credit En Ligne04h 43' 08"+  00:30:57 =30,410  km/h

112  Nicolas Edet  Cofidis Le Credit En Ligne04h 43' 08"+  00:30:57 =30,410  km/h

113  Anders Lund  Saxo Bank-Tinkoff Bank04h 43' 08"+  00:30:57 =30,410  km/h

114  Albert Timmer  Argos–Shimano04h 43' 08"+  00:30:57 =30,410  km/h

115  Baden Cooke  Orica-GreenEDGE04h 43' 08"+  00:30:57 =30,410  km/h

116  Dries Devenyns  Omega Pharma – Quick Step04h 43' 08"+  00:30:57 =30,410  km/h

117  Marco Marzano  Lampre-ISD04h 43' 08"+  00:30:57 =30,410  km/h

118  Kevin De Weert  Omega Pharma – Quick Step04h 43' 08"+  00:30:57 =30,410  km/h

119  Christian Vandevelde  Garmin-Sharp-Barracuda04h 43' 08"+  00:30:57 =30,410  km/h

120  Matthew Goss  Orica-GreenEDGE04h 43' 08"+  00:30:57 =30,410  km/h

121  Jens Voigt  Radioshack–Nissan04h 43' 08"+  00:30:57 =30,410  km/h

122  Patrick Gretsch  Argos–Shimano04h 43' 08"+  00:30:57 =30,410  km/h

123  Matthieu Sprick  Argos–Shimano04h 43' 08"+  00:30:57 =30,410  km/h

124  Jan Ghyselinck  Cofidis Le Credit En Ligne04h 43' 08"+  00:30:57 =30,410  km/h

125  Stuart O'Grady  Orica-GreenEDGE04h 43' 08"+  00:30:57 =30,410  km/h

126  Marco Marcato  Vacansoleil-DCM04h 43' 08"+  00:30:57 =30,410  km/h

127  David Millar  Garmin-Sharp-Barracuda04h 43' 08"+  00:30:57 =30,410  km/h

128  Johan Vansummeren  Garmin-Sharp-Barracuda04h 43' 08"+  00:30:57 =30,410  km/h

129  Jimmy Engoulvent  Saur-Sojasun04h 43' 08"+  00:30:57 =30,410  km/h

130  Bram Tankink  Rabobank04h 43' 08"+  00:30:57 =30,410  km/h

131  Daryl Impey  Orica-GreenEDGE04h 43' 08"+  00:30:57 =30,410  km/h

132  Michael Albasini  Orica-GreenEDGE04h 43' 08"+  00:30:57 =30,410  km/h

133  Lars Bak  Lotto-Belisol04h 43' 08"+  00:30:57 =30,410  km/h

134  Pablo Urtasun  Euskaltel-Euskadi04h 43' 08"+  00:30:57 =30,410  km/h

135  Andrey Kashechkin  Astana Pro Team04h 43' 08"+  00:30:57 =30,410  km/h

136  Jonathan Cantwell  Saxo Bank-Tinkoff Bank04h 43' 08"+  00:30:57 =30,410  km/h

137  Yohann Gène  Europcar04h 43' 08"+  00:30:57 =30,410  km/h

138  David Zabriskie  Garmin-Sharp-Barracuda04h 43' 08"+  00:30:57 =30,410  km/h

139  Manuel Quinziato  BMC04h 43' 08"+  00:30:57 =30,410  km/h

140  Stephen Cummings  BMC04h 43' 08"+  00:30:57 =30,410  km/h

141  Michael Mørkøv  Saxo Bank-Tinkoff Bank04h 43' 08"+  00:30:57 =30,410  km/h

142  Anthony Roux  FDJ – Big Mat04h 43' 08"+  00:30:57 =30,410  km/h

143  Sebastian Langeveld  Orica-GreenEDGE04h 43' 08"+  00:30:57 =30,410  km/h

144  Tyler Farrar  Garmin-Sharp-Barracuda04h 43' 08"+  00:30:57 =30,410  km/h

145  Karsten Kroon  Saxo Bank-Tinkoff Bank04h 43' 08"+  00:30:57 =30,410  km/h

146  Jérôme Pineau  Omega Pharma – Quick Step04h 43' 08"+  00:30:57 =30,410  km/h

147  Luca Paolini  Katusha04h 43' 08"+  00:30:57 =30,410  km/h

148  Vasil Kiryienka  Movistar04h 43' 08"+  00:30:57 =30,410  km/h

149  Jean-Marc Marino  Saur-Sojasun04h 43' 08"+  00:30:57 =30,410  km/h

150  Cyril Lemoine  Saur-Sojasun04h 43' 08"+  00:30:57 =30,410  km/h

151  Bernhard Eisel  Sky Procycling04h 43' 43"+  00:31:32 =30,347  km/h

152  Mark Cavendish  Sky Procycling04h 43' 43"+  00:31:32 =30,347  km/h

153  Alessandro Vanotti  Liquigas-Cannondale04h 43' 43"+  00:31:32 =30,347  km/h


Todays birthdays.

1884 • Vincenzo Borgarello
1889 • Emile Bonnefoi
1889 • Auguste Denizot
1890 • Maurice Petit
1904 • Pierino Ferioli
1905 • Vincent Carrara
1910 • Antoon Van Schendel
1925 • Georges Meunier
1945 • Gérard Besnard
1950 • Wim Kelleners
1960 • Ivan Ivanov
1960 • Pierre-Henri Menthéour
1962 • Giovanni Bottoia
1964 • Flavio Giupponi
1974 • Benoit Salmon
1977 • Iñigo Landaluze
1977 • Svein Tuft
1979 • Rubens Bertogliati
1985 • Matthew Busche

 

Optimized for Chrome - Edge
and Opera browsers.